Date String (YYYY-MM-DD hh:mm:ss) UTC,Instrument flags,absolute air pressure of the measurement (hPa),sample flow rate (lpm),inlet stack bypass flow (lpm),air temperature of the measurement (°C),ambient temperature measured by the external sensor (°C),aerosol sample conditioner tube jacket temperature (°C),OPC LED temperature (°C),internal box temperature (°C),relative humidity of the measurement (%),span deviation,mass concentration of particles derived from Lorenz-Mie calculation of OPC scattering (μg/m³),mass concentration of particles derived from Lorenz-Mie calculation of OPC scattering (μg/m³),mass concentration of particles derived from Lorenz-Mie calculation of OPC scattering (μg/m³)
DateTimeUTC,F1_M11,P_M11,Q1_M11,Q2_M11,T1_M11,T2_M11,T3_M11,T4_M11,T5_M11,U1_M11,ZSPAN_M11,X0_M11,X2_M11,X1_M11
2023-11-21 18:00:00,SystemResetWarning,0840.5,5.01,000.00,021.9,021.4,000.0,030.0,023.3,13.9,0000.0,0003.55,0001.36,0001.09
2023-11-21 18:01:00,SystemResetWarning,0840.5,5.00,000.00,021.9,021.4,000.0,030.0,023.3,13.9,0000.0,0002.81,0001.31,0001.08
2023-11-21 18:02:00,SystemResetWarning,0840.5,4.99,000.00,022.0,021.4,000.0,030.0,023.4,13.8,0000.0,0002.64,0001.30,0001.07
2023-11-21 18:03:00,SystemResetWarning,0840.4,5.00,000.00,022.0,021.4,000.0,030.0,023.4,13.8,0000.0,0004.79,0001.29,0001.07
2023-11-21 18:04:00,SystemResetWarning,0840.5,5.00,000.00,022.0,021.4,000.0,030.0,023.4,13.7,0000.0,0005.21,0001.29,0001.06
2023-11-21 18:05:00,SystemResetWarning,0840.5,5.00,000.00,022.0,021.4,000.0,030.1,023.4,13.6,0000.0,0005.43,0001.29,0001.06
2023-11-21 18:06:00,SystemResetWarning,0840.5,5.00,000.00,022.0,021.5,000.0,030.1,023.4,13.5,0000.0,0005.54,0001.30,0001.06
2023-11-21 18:07:00,SystemResetWarning,0840.5,5.00,000.00,022.1,021.5,000.0,030.1,023.5,13.4,0000.0,0005.19,0001.33,0001.06
2023-11-21 18:08:00,SystemResetWarning,0840.4,5.00,000.00,022.1,021.5,000.0,030.1,023.5,13.5,0000.0,0005.18,0001.34,0001.06
2023-11-21 18:09:00,SystemResetWarning,0840.4,5.01,000.00,022.1,021.5,000.0,030.1,023.5,13.4,0000.0,0005.22,0001.35,0001.07
2023-11-21 18:10:00,SystemResetWarning,0840.4,5.01,000.00,022.1,021.6,000.0,030.1,023.5,13.4,0000.0,0005.30,0001.36,0001.07
2023-11-21 18:11:00,SystemResetWarning,0840.5,5.00,000.00,022.1,021.6,000.0,030.2,023.5,13.5,0000.0,0005.37,0001.38,0001.07
2023-11-21 18:12:00,SystemResetWarning,0840.5,5.01,000.00,022.2,021.6,000.0,030.2,023.6,13.4,0000.0,0005.75,0001.44,0001.08
2023-11-21 18:13:00,SystemResetWarning,0840.4,5.00,000.00,022.2,021.6,000.0,030.2,023.6,13.5,0000.0,0006.47,0001.51,0001.09
2023-11-21 18:14:00,SystemResetWarning,0840.5,5.00,000.00,022.2,021.6,000.0,030.2,023.6,13.3,0000.0,0006.32,0001.54,0001.09
2023-11-21 18:15:00,SystemResetWarning,0840.4,5.00,000.00,022.2,021.6,000.0,030.3,023.6,13.2,0000.0,0004.94,0001.57,0001.10
2023-11-21 18:16:00,SystemResetWarning,0840.4,4.99,000.00,022.2,021.7,000.0,030.3,023.6,13.1,0000.0,0005.16,0001.58,0001.11
2023-11-21 18:17:00,SystemResetWarning,0840.4,4.99,000.00,022.3,021.7,000.0,030.3,023.6,13.1,0000.0,0004.86,0001.59,0001.10
2023-11-21 18:18:00,SystemResetWarning,0840.4,5.00,000.00,022.3,021.7,000.0,030.3,023.7,13.3,0000.0,0005.73,0001.59,0001.11
2023-11-21 18:19:00,SystemResetWarning,0840.3,5.00,000.00,022.3,021.7,000.0,030.3,023.7,13.2,0000.0,0007.50,0001.65,0001.12
2023-11-21 18:20:00,SystemResetWarning,0840.3,5.00,000.00,022.3,021.7,000.0,030.3,023.7,13.2,0000.0,0007.49,0001.68,0001.13
2023-11-21 18:21:00,SystemResetWarning,0840.3,5.01,000.00,022.3,021.8,000.0,030.4,023.8,13.2,0000.0,0008.07,0001.73,0001.14
2023-11-21 18:22:00,SystemResetWarning,0840.4,5.01,000.00,022.4,021.8,000.0,030.4,023.8,13.2,0000.0,0008.41,0001.75,0001.15
2023-11-21 18:23:00,SystemResetWarning,0840.4,5.01,000.00,022.4,021.8,000.0,030.4,023.8,13.1,0000.0,0008.40,0001.72,0001.15
2023-11-21 18:24:00,SystemResetWarning,0840.4,5.00,000.00,022.4,021.8,000.0,030.4,023.8,13.0,0000.0,0007.99,0001.65,0001.14
2023-11-21 18:25:00,SystemResetWarning,0840.3,4.99,000.00,022.4,021.8,000.0,030.4,023.8,12.6,0000.0,0007.66,0001.65,0001.15
2023-11-21 18:26:00,SystemResetWarning,0840.4,5.00,000.00,022.5,021.9,000.0,030.5,023.9,12.8,0000.0,0007.68,0001.63,0001.15
2023-11-21 18:27:00,SystemResetWarning,0840.3,5.00,000.00,022.5,021.9,000.0,030.5,023.9,12.7,0000.0,0007.55,0001.59,0001.14
2023-11-21 18:28:00,SystemResetWarning,0840.2,5.00,000.00,022.5,021.9,000.0,030.5,023.9,12.7,0000.0,0007.84,0001.60,0001.14
2023-11-21 18:29:00,SystemResetWarning,0840.2,5.00,000.00,022.5,021.9,000.0,030.5,023.9,12.7,0000.0,0008.11,0001.61,0001.14
2023-11-21 18:30:00,SystemResetWarning,0840.2,5.00,000.00,022.5,021.9,000.0,030.5,023.9,12.0,0000.0,0007.82,0001.58,0001.14
2023-11-21 18:31:00,SystemResetWarning,0840.2,5.00,000.00,022.6,022.0,000.0,030.6,024.0,11.4,0000.0,0008.72,0001.56,0001.12
2023-11-21 18:32:00,SystemResetWarning,0840.2,5.01,000.00,022.6,022.0,000.0,030.6,024.0,11.5,0000.0,0008.30,0001.53,0001.09
2023-11-21 18:33:00,SystemResetWarning,0840.2,5.00,000.00,022.6,022.0,000.0,030.6,024.0,11.6,0000.0,0007.88,0001.53,0001.08
2023-11-21 18:34:00,SystemResetWarning,0840.2,5.00,000.00,022.6,022.0,000.0,030.6,024.0,11.6,0000.0,0007.81,0001.52,0001.07
2023-11-21 18:35:00,SystemResetWarning,0840.2,5.01,000.00,022.6,022.0,000.0,030.7,024.0,12.0,0000.0,0007.80,0001.52,0001.06
2023-11-21 18:36:00,SystemResetWarning,0840.2,5.00,000.00,022.7,022.1,000.0,030.7,024.0,12.0,0000.0,0007.90,0001.48,0001.04
2023-11-21 18:37:00,SystemResetWarning,0840.2,5.00,000.00,022.7,022.1,000.0,030.7,024.1,11.9,0000.0,0008.12,0001.45,0001.01
2023-11-21 18:38:00,SystemResetWarning,0840.1,5.00,000.00,022.7,022.1,000.0,030.7,024.1,11.7,0000.0,0009.16,0001.43,0000.99
2023-11-21 18:39:00,SystemResetWarning,0840.1,5.00,000.00,022.7,022.1,000.0,030.7,024.1,11.5,0000.0,0008.96,0001.40,0000.97
2023-11-21 18:40:00,SystemResetWarning,0840.1,5.00,000.00,022.7,022.1,000.0,030.7,024.1,11.3,0000.0,0008.53,0001.37,0000.95
2023-11-21 18:41:00,SystemResetWarning,0840.0,4.99,000.00,022.7,022.1,000.0,030.8,024.1,11.9,0000.0,0007.91,0001.34,0000.93
2023-11-21 18:42:00,SystemResetWarning,0840.0,5.00,000.00,022.8,022.1,000.0,030.8,024.1,11.6,0000.0,0006.85,0001.32,0000.92
2023-11-21 18:43:00,SystemResetWarning,0840.0,5.00,000.00,022.8,022.1,000.0,030.8,024.1,11.4,0000.0,0007.14,0001.35,0000.91
2023-11-21 18:44:00,SystemResetWarning,0839.9,5.00,000.00,022.8,022.1,000.0,030.8,024.1,11.3,0000.0,0006.89,0001.28,0000.89
2023-11-21 18:45:00,SystemResetWarning,0840.0,5.00,000.00,022.8,022.2,000.0,030.8,024.2,11.1,0000.0,0006.63,0001.21,0000.86
2023-11-21 18:46:00,SystemResetWarning,0840.0,5.00,000.00,022.8,022.2,000.0,030.9,024.2,10.8,0000.0,0006.66,0001.18,0000.84
2023-11-21 18:47:00,SystemResetWarning,0839.9,5.00,000.00,022.8,022.2,000.0,030.9,024.2,10.9,0000.0,0007.36,0001.19,0000.84
2023-11-21 18:48:00,SystemResetWarning,0840.0,5.01,000.00,022.9,022.2,000.0,030.9,024.2,10.7,0000.0,0007.42,0001.20,0000.85
2023-11-21 18:49:00,SystemResetWarning,0839.9,5.00,000.00,022.9,022.2,000.0,030.9,024.3,10.5,0000.0,0005.90,0001.23,0000.85
2023-11-21 18:50:00,SystemResetWarning,0839.9,5.00,000.00,022.9,022.3,000.0,030.9,024.3,10.5,0000.0,0005.44,0001.22,0000.85
2023-11-21 18:51:00,SystemResetWarning,0839.9,4.99,000.00,022.9,022.3,000.0,030.9,024.3,10.5,0000.0,0005.15,0001.17,0000.84
2023-11-21 18:52:00,SystemResetWarning,0839.9,5.01,000.00,022.9,022.3,000.0,031.0,024.3,10.3,0000.0,0004.57,0001.15,0000.82
2023-11-21 18:53:00,SystemResetWarning,0839.9,4.99,000.00,023.0,022.3,000.0,031.0,024.4,10.0,0000.0,0006.05,0001.12,0000.80
2023-11-21 18:54:00,SystemResetWarning,0839.9,5.00,000.00,023.0,022.4,000.0,031.0,024.4,10.1,0000.0,0005.53,0001.06,0000.79
2023-11-21 18:55:00,SystemResetWarning,0839.8,5.00,000.00,023.0,022.4,000.0,031.0,024.4,10.1,0000.0,0005.44,0001.03,0000.78
2023-11-21 18:56:00,SystemResetWarning,0839.8,5.00,000.00,023.0,022.4,000.0,031.1,024.4,10.1,0000.0,0005.47,0001.05,0000.78
2023-11-21 18:57:00,SystemResetWarning,0839.8,5.00,000.00,023.0,022.4,000.0,031.1,024.4,10.0,0000.0,0005.46,0001.04,0000.78
2023-11-21 18:58:00,SystemResetWarning,0839.8,5.01,000.00,023.1,022.4,000.0,031.1,024.5,10.2,0000.0,0005.90,0001.02,0000.76
2023-11-21 18:59:00,SystemResetWarning,0839.8,5.01,000.00,023.1,022.5,000.0,031.1,024.5,10.1,0000.0,0005.32,0001.00,0000.75
